Location: San Martino di Castrozza
(46.2667°N, 11.8000°E)
Time: 18:14:11
(UTC+00:00)

Cosmos 1953 - Pass Details

Date: 06 August 2021
Orbit: 538 x 556 km, 82.5° (Epoch: 18 September)

Event Time Altitude Azimuth Distance (km) Brightness Sun altitude
Rises 02:00:17 0° 146° (SE) 2,719 5.7 -17.3°
Reaches altitude 10° 02:03:05 10° 125° (SE) 1,827 5.0 -17.0°
Maximum altitude 02:05:36 16° 86° (E) 1,472 5.1 -16.7°
Drops below altitude 10° 02:08:06 10° 47° (NE) 1,830 6.3 -16.4°
Sets 02:10:55 0° 26° (NNE) 2,725 7.4 -16.1°
